| time (UTC) | temp F | wind direction | speed MPH | gust MPH | rain 1hr in | rain 24hr in | rain mn in | humidity % | barometer mb |
| 20260503184317 | 58 | 285 | 6.0 | 9.0 | 0.00 | 0.00 | 0.00 | 60 | 1085.3 |
| 20260503183317 | 59 | 225 | 3.0 | 5.0 | 0.00 | 0.00 | 0.00 | 59 | 1085.2 |
| 20260503180415 | 58 | 225 | 3.0 | 3.0 | 0.00 | 0.00 | 0.00 | 62 | 1085.3 |
| 20260503174516 | 57 | 260 | 3.0 | 5.0 | 0.00 | 0.00 | 0.00 | 65 | 1085.1 |
| 20260503174416 | 57 | 238 | 4.0 | 7.0 | 0.00 | 0.00 | 0.00 | 65 | 1085.1 |
| 20260503173418 | 56 | 225 | 8.0 | 9.0 | 0.00 | 0.00 | 0.00 | 68 | 1085.2 |
| 20260503172416 | 56 | 277 | 2.0 | 4.0 | 0.00 | 0.00 | 0.00 | 72 | 1085.1 |
| 20260503170417 | 55 | 292 | 3.0 | 3.0 | 0.00 | 0.00 | 0.00 | 76 | 1085.1 |
| 20260503150803 | 0 | 0 | 0.0 | 0.0 | 0.00 | 0.00 | 0.00 | 100 | |
| 20260503130805 | 0 | 0 | 0.0 | 0.0 | 0.00 | 0.00 | 0.00 | 100 | |
| 20260503110204 | 0 | 0 | 0.0 | 0.0 | 0.00 | 0.00 | 0.00 | 100 | |
| 20260503090421 | 0 | 0 | 0.0 | 0.0 | 0.00 | 0.00 | 0.00 | 100 | |
| 20260503072720 | 0 | 0 | 0.0 | 0.0 | 0.00 | 0.00 | 0.00 | 100 | |
| 20260503070723 | 0 | 0 | 0.0 | 0.0 | 0.00 | 0.00 | 0.00 | 100 | |
| 20260503054717 | 0 | 0 | 0.0 | 0.0 | 0.00 | 0.00 | 0.00 | 100 | |
| 20260503053717 | 0 | 0 | 0.0 | 0.0 | 0.00 | 0.00 | 0.00 | 100 | |
| 20260503052716 | 0 | 0 | 0.0 | 0.0 | 0.00 | 0.00 | 0.00 | 100 | |
| 20260503051716 | 0 | 0 | 0.0 | 0.0 | 0.00 | 0.00 | 0.00 | 100 | |
| 20260503045733 | 0 | 0 | 0.0 | 0.0 | 0.00 | 0.00 | 0.00 | 100 | |
| 20260503043916 | 0 | 0 | 0.0 | 0.0 | 0.00 | 0.00 | 0.00 | 100 | |
| 20260503042918 | 0 | 0 | 0.0 | 0.0 | 0.00 | 0.00 | 0.00 | 100 | |
| 20260503041917 | 56 | 112 | 7.0 | 7.0 | 0.00 | 0.00 | 0.00 | 73 | 1081.7 |
| 20260503035917 | 57 | 112 | 7.0 | 7.0 | 0.00 | 0.00 | 0.00 | 70 | 1081.5 |
| 20260503035816 | 57 | 112 | 7.0 | 7.0 | 0.00 | 0.00 | 0.00 | 70 | 1081.5 |
| 20260503034817 | 58 | 112 | 7.0 | 7.0 | 0.00 | 0.00 | 0.00 | 67 | 1081.3 |
| 20260503034715 | 58 | 112 | 7.0 | 7.0 | 0.00 | 0.00 | 0.00 | 67 | 1081.3 |
| 20260503033717 | 58 | 112 | 6.0 | 6.0 | 0.00 | 0.00 | 0.00 | 67 | 1081.3 |
| 20260503031817 | 60 | 112 | 6.0 | 7.0 | 0.00 | 0.00 | 0.00 | 65 | 1081.2 |
| 20260503031719 | 60 | 112 | 7.0 | 7.0 | 0.00 | 0.00 | 0.00 | 64 | 1081.2 |
| 20260503030716 | 60 | 67 | 3.0 | 3.0 | 0.00 | 0.00 | 0.00 | 64 | 1081.1 |
| 20260503030615 | 60 | 112 | 4.0 | 4.0 | 0.00 | 0.00 | 0.00 | 64 | 1081.1 |
| 20260503025616 | 61 | 67 | 3.0 | 3.0 | 0.00 | 0.00 | 0.00 | 62 | 1081.1 |
| 20260503025515 | 61 | 67 | 3.0 | 3.0 | 0.00 | 0.00 | 0.00 | 62 | 1081.1 |
| 20260503024518 | 61 | 112 | 4.0 | 5.0 | 0.00 | 0.00 | 0.00 | 61 | 1081.0 |
| 20260503022519 | 63 | 157 | 4.0 | 4.0 | 0.00 | 0.00 | 0.00 | 58 | 1080.9 |
| 20260503021517 | 64 | 67 | 4.0 | 4.0 | 0.00 | 0.00 | 0.00 | 57 | 1080.9 |
| 20260503015516 | 66 | 157 | 3.0 | 4.0 | 0.00 | 0.00 | 0.00 | 55 | 1081.0 |
| 20260503014416 | 66 | 150 | 4.0 | 5.0 | 0.00 | 0.00 | 0.00 | 54 | 1080.7 |
| 20260503013416 | 66 | 157 | 1.0 | 1.0 | 0.00 | 0.00 | 0.00 | 52 | 1080.8 |
| 20260503013317 | 66 | 144 | 3.0 | 5.0 | 0.00 | 0.00 | 0.00 | 53 | 1080.8 |
| 20260503012316 | 67 | 135 | 4.0 | 4.0 | 0.00 | 0.00 | 0.00 | 52 | 1080.8 |
| 20260503011415 | 68 | 177 | 4.0 | 6.0 | 0.00 | 0.00 | 0.00 | 51 | 1080.8 |
| 20260503011317 | 68 | 183 | 3.0 | 4.0 | 0.00 | 0.00 | 0.00 | 52 | 1080.8 |
| 20260503010317 | 69 | 225 | 4.0 | 4.0 | 0.00 | 0.00 | 0.00 | 51 | 1080.9 |
| 20260503005318 | 70 | 171 | 4.0 | 7.0 | 0.00 | 0.00 | 0.00 | 51 | 1080.7 |
| 20260503002416 | 71 | 157 | 3.0 | 5.0 | 0.00 | 0.00 | 0.00 | 49 | 1080.8 |
| 20260503002317 | 71 | 157 | 2.0 | 3.0 | 0.00 | 0.00 | 0.00 | 50 | 1080.8 |
| 20260503001318 | 72 | 157 | 3.0 | 6.0 | 0.00 | 0.00 | 0.00 | 49 | 1080.7 |
| 20260503000318 | 72 | 177 | 3.0 | 4.0 | 0.00 | 0.00 | 0.00 | 48 | 1080.8 |
| 20260502235317 | 73 | 214 | 2.0 | 5.0 | 0.00 | 0.00 | 0.00 | 46 | 1080.9 |
| 20260502235218 | 74 | 174 | 3.0 | 5.0 | 0.00 | 0.00 | 0.00 | 47 | 1080.9 |
| 20260502234217 | 74 | 172 | 2.0 | 3.0 | 0.00 | 0.00 | 0.00 | 46 | 1081.0 |
| 20260502233216 | 74 | 206 | 1.0 | 3.0 | 0.00 | 0.00 | 0.00 | 45 | 1080.9 |
| 20260502231219 | 73 | 184 | 1.0 | 5.0 | 0.00 | 0.00 | 0.00 | 49 | 1081.0 |
| 20260502231117 | 73 | 225 | 1.0 | 4.0 | 0.00 | 0.00 | 0.00 | 49 | 1081.1 |
| 20260502230116 | 73 | 189 | 3.0 | 4.0 | 0.00 | 0.00 | 0.00 | 50 | 1081.2 |
| 20260502224017 | 76 | 187 | 3.0 | 5.0 | 0.00 | 0.00 | 0.00 | 47 | 1081.5 |
| 20260502223116 | 76 | 161 | 3.0 | 4.0 | 0.00 | 0.00 | 0.00 | 44 | 1081.7 |
| 20260502222118 | 77 | 180 | 1.0 | 4.0 | 0.00 | 0.00 | 0.00 | 43 | 1081.9 |
| 20260502221117 | 77 | 253 | 1.0 | 4.0 | 0.00 | 0.00 | 0.00 | 43 | 1081.9 |
| 20260502215216 | 74 | 157 | 0.0 | 0.0 | 0.00 | 0.00 | 0.00 | 47 | 1082.1 |
| 20260502214217 | 74 | 160 | 4.0 | 5.0 | 0.00 | 0.00 | 0.00 | 49 | 1082.3 |
| 20260502213217 | 73 | 142 | 3.0 | 5.0 | 0.00 | 0.00 | 0.00 | 52 | 1082.4 |
| 20260502211217 | 73 | 158 | 4.0 | 7.0 | 0.00 | 0.00 | 0.00 | 52 | 1082.6 |
| 20260502210315 | 73 | 157 | 2.0 | 4.0 | 0.00 | 0.00 | 0.00 | 52 | 1082.9 |
| 20260502205316 | 73 | 205 | 1.0 | 3.0 | 0.00 | 0.00 | 0.00 | 53 | 1083.0 |
| 20260502204317 | 72 | 214 | 2.0 | 4.0 | 0.00 | 0.00 | 0.00 | 54 | 1083.1 |
| 20260502203416 | 73 | 157 | 2.0 | 3.0 | 0.00 | 0.00 | 0.00 | 55 | 1083.2 |
| 20260502203318 | 73 | 194 | 2.0 | 3.0 | 0.00 | 0.00 | 0.00 | 54 | 1083.2 |
| 20260502202415 | 71 | 165 | 2.0 | 4.0 | 0.00 | 0.00 | 0.00 | 55 | 1083.4 |
| 20260502200516 | 71 | 184 | 0.0 | 1.0 | 0.00 | 0.00 | 0.00 | 57 | 1083.6 |
| 20260502195518 | 71 | 247 | 2.0 | 2.0 | 0.00 | 0.00 | 0.00 | 58 | 1083.9 |
| 20260502192619 | 68 | 176 | 2.0 | 3.0 | 0.00 | 0.00 | 0.00 | 63 | 1084.4 |
| 20260502191617 | 67 | 266 | 0.0 | 1.0 | 0.00 | 0.00 | 0.00 | 64 | 1084.5 |
| 20260502190616 | 66 | 225 | 1.0 | 1.0 | 0.00 | 0.00 | 0.00 | 66 | 1084.8 |
| 20260502185618 | 65 | 225 | 2.0 | 3.0 | 0.00 | 0.00 | 0.00 | 66 | 1084.9 |